GW3247 Weather Reports


time (UTC)temp
C
wind
direction
speed
KPH
gust
KPH
rain 1hr
cm
rain 24hr
cm
rain mn
cm
humidity
%
barometer
mb
20260831193029 15 231 1.6 8.0 0.00 1.55 1.55 91 1007.3
20260831191528 15 198 1.6 6.4 0.00 1.55 1.55 91 1007.0
20260831190034 15 145 1.6 4.8 0.00 1.55 1.55 90 1006.9
20260831184526 15 150 0.0 4.8 0.00 1.55 1.55 90 1006.8
20260831183026 15 198 1.6 4.8 0.00 1.55 1.55 90 1006.8
20260831181525 16 209 1.6 4.8 0.00 1.55 1.55 90 1006.8
20260831180025 16 230 0.0 3.2 0.00 1.55 1.55 89 1006.8
20260831174534 16 230 0.0 3.2 0.00 1.55 1.55 89 1006.7
20260831173023 17 145 1.6 4.8 0.00 1.55 1.55 90 1006.6
20260831171530 17 142 0.0 4.8 0.03 1.55 1.55 91 1006.6
20260831170022 16 199 1.6 4.8 0.03 1.55 1.55 91 1006.5
20260831164521 16 208 1.6 3.2 0.03 1.55 1.55 91 1006.8
20260831163121 16 232 1.6 8.0 0.05 1.55 1.55 91 1006.8
20260831161520 16 238 1.6 4.8 0.03 1.55 1.55 92 1006.6
20260831160020 16 224 1.6 4.8 0.03 1.55 1.55 92 1006.3
20260831154527 16 197 4.8 12.9 0.03 1.55 1.55 91 1006.5
20260831153021 17 226 1.6 12.9 0.00 1.55 1.52 93 1006.4
20260831151517 17 231 3.2 8.0 0.00 1.55 1.52 93 1006.5
20260831150016 17 145 0.0 6.4 0.00 1.55 1.52 93 1006.4
20260831144515 17 136 3.2 8.0 0.00 1.55 1.52 93 1006.6
20260831143015 17 145 4.8 9.7 0.05 1.55 1.52 94 1006.6
20260831141516 16 91 6.4 12.9 0.71 1.55 1.52 93 1006.6
20260831140013 16 96 8.0 14.5 0.71 1.55 1.52 93 1006.8
20260831134513 16 118 9.7 14.5 1.09 1.55 1.52 93 1006.8
20260831133012 16 118 3.2 11.3 0.97 1.42 1.37 93 1006.6
20260831131515 16 63 3.2 16.1 0.41 0.86 0.81 93 1006.6
20260831130008 17 162 9.7 14.5 0.36 0.81 0.79 93 1006.7
20260831124509 17 116 9.7 17.7 0.00 0.99 0.43 93 1006.5
20260831123007 17 111 9.7 19.3 0.00 0.99 0.43 92 1006.4
20260831121506 17 127 11.3 16.1 0.00 0.99 0.43 92 1006.6
20260831120006 17 138 6.4 14.5 0.15 0.99 0.43 93 1006.9
20260831114509 17 129 6.4 11.3 0.36 1.09 0.43 93 1006.8
20260831113005 16 128 6.4 9.7 0.36 1.09 0.43 93 1006.8
20260831111503 16 150 8.0 27.4 0.36 1.09 0.43 90 1007.1
20260831110002 17 189 9.7 22.5 0.18 0.91 0.23 87 1007.4
20260831104503 17 141 8.0 20.9 0.00 0.71 0.05 87 1007.0
20260831103000 18 136 12.9 20.9 0.00 0.71 0.05 88 1007.0
20260831101558 17 162 9.7 19.3 0.00 0.71 0.05 90 1007.0
20260831100117 17 150 9.7 17.7 0.00 0.71 0.05 90 1007.2
20260831094554 17 115 9.7 17.7 0.00 0.71 0.05 90 1007.2
20260831093054 16 150 12.9 22.5 0.03 0.71 0.05 90 1007.5
20260831091556 16 154 8.0 17.7 0.05 0.71 0.05 90 1007.7
20260831090049 16 143 6.4 14.5 0.05 0.71 0.05 90 1007.8
20260831084621 16 111 8.0 14.5 0.05 0.71 0.05 89 1007.9
20260831083052 16 131 4.8 12.9 0.05 0.71 0.05 88 1007.9
20260831081546 16 135 8.0 14.5 0.00 0.69 0.00 86 1008.0
20260831080043 16 131 3.2 8.0 0.00 0.69 0.00 86 1008.0
20260831074557 16 133 4.8 9.7 0.00 0.69 0.00 86 1008.0
20260831073042 16 148 3.2 9.7 0.00 0.69 0.00 87 1008.2
20260831071549 16 201 3.2 6.4 0.00 0.69 0.00 87 1008.3
20260831070040 16 155 1.6 8.0 0.00 0.69 0.00 88 1008.1
20260831064539 16 200 4.8 9.7 0.00 0.89 0.00 89 1008.1
20260831063035 16 140 3.2 4.8 0.00 0.89 0.00 90 1008.0
20260831061533 15 151 3.2 8.0 0.00 0.89 0.00 91 1008.1
20260831060028 15 148 1.6 6.4 0.00 0.89 0.00 91 1008.0
20260831054526 15 169 3.2 11.3 0.00 0.91 0.00 91 1008.4
20260831053026 15 151 1.6 6.4 0.00 0.91 0.00 92 1008.3
20260831051525 15 202 1.6 6.4 0.00 0.91 0.00 92 1008.3
20260831050030 14 176 4.8 8.0 0.00 0.91 0.00 92 1008.6
20260831044524 14 210 1.6 9.7 0.00 0.91 0.00 92 1008.5
20260831043033 14 212 3.2 11.3 0.00 0.91 0.00 92 1008.3
20260831041522 14 221 3.2 9.7 0.00 0.91 0.00 92 1008.3
20260831040021 14 216 4.8 9.7 0.00 0.91 0.00 92 1008.3
20260831034521 15 162 3.2 9.7 0.00 0.91 0.00 91 1008.2
20260831033021 15 217 4.8 11.3 0.00 0.91 0.00 91 1008.3
20260831031518 15 230 4.8 11.3 0.00 0.91 0.00 91 1008.5
20260831030018 15 190 6.4 11.3 0.00 0.91 0.00 91 1008.5
20260831024523 15 212 4.8 11.3 0.00 0.94 0.00 91 1008.4
20260831023016 15 200 6.4 11.3 0.00 0.94 0.00 91 1008.3
20260831021516 15 245 6.4 12.9 0.00 0.94 0.00 91 1008.6
20260831020015 15 212 6.4 14.5 0.00 0.94 0.00 91 1008.6
20260831014512 15 207 8.0 14.5 0.00 0.94 0.00 91 1008.6
20260831013022 15 212 4.8 11.3 0.00 0.94 0.00 91 1008.6
20260831011517 14 212 6.4 11.3 0.00 0.94 0.00 91 1008.8
20260831010013 14 189 6.4 11.3 0.00 0.94 0.00 91 1008.6
20260831004511 14 205 4.8 12.9 0.00 0.94 0.00 91 1008.7
20260831003007 14 200 4.8 11.3 0.00 0.94 0.00 91 1008.8
20260831001514 14 210 4.8 11.3 0.00 0.94 0.00 90 1008.7
20260831000001 14 232 3.2 8.0 0.00 0.94 0.00 90 1008.6
20260830234607 14 214 3.2 8.0 0.00 0.94 0.00 90 1008.6
20260830234500 14 196 3.2 8.0 0.00 0.94 0.00 90 1008.6
20260830233059 15 213 3.2 8.0 0.00 0.94 0.00 89 1008.6
20260830231604 15 188 3.2 8.0 0.00 0.94 0.00 89 1008.6
20260830230054 15 231 1.6 6.4 0.00 0.94 0.00 89 1008.7
20260830224605 15 154 4.8 9.7 0.00 0.94 0.00 88 1008.5
20260830223051 15 237 4.8 11.3 0.00 0.94 0.00 87 1008.6
20260830221549 16 233 1.6 6.4 0.00 0.94 0.00 86 1008.5
20260830220048 16 269 4.8 16.1 0.00 0.94 0.00 86 1008.5
20260830214547 16 186 4.8 17.7 0.00 0.94 0.94 86 1008.5
20260830213044 16 306 9.7 20.9 0.00 0.94 0.94 86 1008.5
20260830211544 16 320 12.9 20.9 0.00 0.94 0.94 87 1008.2
20260830210049 16 238 4.8 22.5 0.00 0.94 0.94 88 1008.2
20260830204542 16 238 6.4 16.1 0.00 0.94 0.94 89 1008.2
20260830203041 16 239 6.4 16.1 0.00 0.94 0.94 89 1008.1
20260830201540 16 260 6.4 12.9 0.00 0.94 0.94 89 1007.9
20260830200050 16 229 6.4 14.5 0.00 0.94 0.94 89 1007.9
20260830194543 16 268 4.8 12.9 0.00 0.94 0.94 89 1007.7